Millinocket, ME

7:32 AM EDT on July 26, 2017 (GMT -0400)
Millinocket Municipal

Weather History for KMLT - November, 2012

Change the Weather History Date:

Thursday, November 29, 2012

  Actual Average Record
Temperature  
Mean Temperature 24 °F 29 °F  
Max Temperature 29 °F 36 °F 59 °F (2003)
Min Temperature 18 °F 22 °F -10 °F (1920)
Degree Days  
Heating Degree Days 41 36  
Month to date heating degree days 889 874  
Since 1 July heating degree days 1594 1808  
Cooling Degree Days 0 0  
Month to date cooling degree days 0 0  
Year to date cooling degree days 443 268  
Moisture  
Dew Point 14 °F    
Average Humidity 66    
Maximum Humidity 92    
Minimum Humidity 39    
Precipitation  
Precipitation T in 0.18 in 1.98 in (1937)
Month to date precipitation 1.15 4.26  
Year to date precipitation 35.56 38.98  
Snow  
Snow 0.00 in - - ()
Month to date snowfall  
Since 1 July snowfall 0.0  
Since 1 September snowfall 0.0  
Snow Depth -    
Sea Level Pressure  
Sea Level Pressure 30.08 in    
Wind  
Wind Speed 6 mph (WNW)    
Max Wind Speed 20 mph    
Max Gust Speed 24 mph    
Visibility 8 miles    
Events Snow    
T = Trace of Precipitation, MM = Missing Value Source: NWS Daily Summary

Daily Weather History Graph

Daily Weather History Graph

Search for Another Location

Airport or City:

Trip Planner

Search our weather history database for the weather conditions in past years. The results will help you decide how hot, cold, wet, or windy it might be!

Date:

Astronomy

Nov. 29, 2012 Rise Set
Actual Time 6:53 AM EST 3:53 PM EST
Civil Twilight 6:19 AM EST 4:26 PM EST
Nautical Twilight 5:42 AM EST 5:03 PM EST
Astronomical Twilight 5:06 AM EST 5:39 PM EST
Moon 4:52 PM EST (11/29) 7:37 AM EST (11/29)
Length of Visible Light 10h 06m
Length of Day
8h 59m
Full, 99% of the Moon is Illuminated
Nov 29
Full
Dec 6
Last Quarter
Dec 13
New
Dec 20
First Quarter
Dec 28
Full

Hourly Weather History & Observations

Time (EST) Temp. Windchill Dew Point Humidity Pressure Visibility Wind Dir Wind Speed Gust Speed Precip Events Conditions
12:53 AM 19.9 °F - 16.0 °F 85% 30.07 in 8.0 mi Calm Calm - N/A   Overcast
1:53 AM 19.9 °F - 16.0 °F 85% 30.06 in 10.0 mi Calm Calm - N/A   Overcast
2:53 AM 21.0 °F - 18.0 °F 88% 30.06 in 10.0 mi Calm Calm - 0.00 in   Overcast
3:53 AM 19.9 °F - 16.0 °F 85% 30.04 in 10.0 mi Calm Calm - N/A   Scattered Clouds
4:53 AM 21.9 °F - 18.0 °F 85% 30.05 in 9.0 mi Calm Calm - 0.00 in   Overcast
5:32 AM 23.0 °F 18.4 °F 19.4 °F 86% 30.03 in 2.0 mi Variable 3.5 mph - 0.00 in Snow Light Snow
5:39 AM 23.0 °F 18.4 °F 19.4 °F 86% 30.03 in 3.0 mi West 3.5 mph - 0.00 in Snow Light Snow
5:48 AM 24.8 °F 20.5 °F 19.4 °F 80% 30.03 in 2.5 mi WSW 3.5 mph - 0.00 in Snow Light Snow
5:53 AM 24.1 °F 19.7 °F 19.9 °F 84% 30.07 in 2.5 mi West 3.5 mph - 0.00 in Snow Light Snow
6:06 AM 24.8 °F - 21.2 °F 86% 30.03 in 5.0 mi Calm Calm - 0.00 in Snow Light Snow
6:53 AM 25.0 °F 20.7 °F 14.0 °F 63% 30.09 in 10.0 mi Variable 3.5 mph 17.3 mph 0.00 in   Partly Cloudy
7:53 AM 25.0 °F 17.1 °F 12.0 °F 58% 30.10 in 10.0 mi West 6.9 mph - N/A   Mostly Cloudy
8:53 AM 24.1 °F 15.2 °F 12.0 °F 60% 30.11 in 10.0 mi West 8.1 mph 18.4 mph N/A   Mostly Cloudy
9:12 AM 24.8 °F 14.6 °F 12.2 °F 59% 30.08 in 10.0 mi WNW 10.4 mph 18.4 mph N/A   Mostly Cloudy
9:53 AM 23.0 °F 11.7 °F 10.9 °F 60% 30.12 in 10.0 mi WNW 11.5 mph 21.9 mph N/A   Overcast
10:30 AM 24.8 °F 12.9 °F 10.4 °F 54% 30.08 in 10.0 mi WNW 13.8 mph - N/A   Scattered Clouds
10:53 AM 24.1 °F 13.1 °F 6.1 °F 46% 30.11 in 10.0 mi WNW 11.5 mph 23.0 mph N/A   Clear
11:53 AM 26.1 °F 14.5 °F 6.1 °F 43% 30.09 in 10.0 mi NW 13.8 mph 18.4 mph N/A   Clear
12:53 PM 27.0 °F - 6.1 °F 41% 30.07 in 10.0 mi Calm Calm - N/A   Clear
1:53 PM 28.0 °F 21.7 °F 6.1 °F 39% 30.05 in 10.0 mi West 5.8 mph - N/A   Overcast
2:53 PM 28.0 °F 24.2 °F 7.0 °F 41% 30.04 in 10.0 mi Variable 3.5 mph - N/A   Overcast
3:53 PM 28.0 °F 22.8 °F 9.0 °F 45% 30.03 in 10.0 mi Variable 4.6 mph - N/A   Overcast
4:53 PM 28.0 °F 22.8 °F 15.1 °F 58% 30.03 in 10.0 mi Variable 4.6 mph - N/A   Overcast
5:53 PM 27.0 °F 23.0 °F 19.9 °F 75% 30.05 in 5.0 mi West 3.5 mph - 0.00 in Snow Light Snow
6:18 PM 24.8 °F 16.1 °F 21.2 °F 86% 30.03 in 2.5 mi NNW 8.1 mph - 0.00 in Snow Light Snow
6:26 PM 24.8 °F 16.9 °F 19.4 °F 80% 30.03 in 3.0 mi NNW 6.9 mph - 0.00 in Snow Light Snow
6:53 PM 24.1 °F 18.2 °F 19.9 °F 84% 30.08 in 9.0 mi NNW 4.6 mph - 0.00 in   Overcast
7:53 PM 24.1 °F 13.1 °F 16.0 °F 71% 30.10 in 10.0 mi WNW 11.5 mph - N/A   Mostly Cloudy
8:53 PM 21.9 °F 11.7 °F 12.9 °F 68% 30.13 in 10.0 mi NW 9.2 mph - N/A   Partly Cloudy
9:53 PM 19.9 °F 9.3 °F 9.0 °F 62% 30.15 in 10.0 mi NW 9.2 mph 20.7 mph N/A   Clear
10:53 PM 19.0 °F 6.1 °F 9.0 °F 65% 30.18 in 10.0 mi NW 12.7 mph 24.2 mph N/A   Clear
11:53 PM 18.0 °F 5.4 °F 7.0 °F 62% 30.21 in 10.0 mi WNW 11.5 mph 19.6 mph N/A   Mostly Cloudy